Powrót do katalogu

COSMOS 1275 DEB

AktywnyPO
NORAD 14364·DEBRIS·🇷🇺 Russia

Wystrzelony Jun 4, 1981 z Plesetsk Cosmodrome

Loading…

Następne Przeloty (najbliższe 24 godziny)

TLE

ŚwieżeSource: Space-Track

Epoka: Sep 14, 2026, 06:57 UTC

1 14364U 81053HX  26257.28979411  .00002245  00000-0  93484-3 0  9992
2 14364  82.7787 201.0936 0027358 326.6543  33.2917 14.25774848240308

Śledź COSMOS 1275 DEB w czasie rzeczywistym z AllMySat

Download on the App Store